Regional Weather Roundup
Issued by NWS

Home | Current Version | Previous Version | Graphics & Text | Print | Product List | Glossary On
Versions: 1 2 3 4 5 6 7 8 9 10 11 12 13 14 15 16 17 18 19 20 21 22 23 24 25 26 27 28 29 30 31 32 33 34 35 36 37 38 39 40 41 42 43 44 45 46 47 48 49 50
323
ASUS45 KSLC 280410
RWRUT

UTAH REGIONAL WEATHER ROUNDUP
NATIONAL WEATHER SERVICE SALT LAKE CITY UT
1000 PM MDT TUE SEP 27 2016

UTZ001>011-023>025-280500-

NORTHERN UTAH

CITY           SKY/WX    TMP DP  RH WIND       PRES   REMARKS
BRIGHAM CITY     N/A     60  52  75 CALM      30.15R
HILL AFB       CLEAR     61  49  65 E9        30.16S
LOGAN          CLEAR     53  48  83 CALM      30.16R
OGDEN          CLEAR     60  51  72 S7        30.14S
PROVO AIRPORT  CLEAR     61  51  70 NE3       30.16R
SALT LAKE CITY CLEAR     64  52  64 CALM      30.14S
VERNAL         CLEAR     56  48  74 W7        30.20R
WENDOVER       CLEAR     61  46  59 NW7       30.14S
HEBER CITY     CLEAR     52  41  66 CALM      30.20S
WEST JORDAN    CLEAR     61  46  58 CALM      30.17S

$$

UTZ012>022-026-027-280500-

SOUTHERN/CENTRAL UTAH

CITY           SKY/WX    TMP DP  RH WIND       PRES   REMARKS
BLANDING       PTCLDY    61  33  33 N7        30.29S
BRYCE CANYON   PTCLDY    46  37  71 W7        30.33S
CEDAR CITY     CLEAR     65  34  31 CALM      30.17S
DELTA          CLEAR     63  41  45 NE5       30.14S
MILFORD        CLEAR     64  35  34 NW9       30.14S
MOAB/CYNLANDS  CLEAR     63  36  36 CALM      30.12S
PRICE          CLEAR     57  39  51 N9        30.23R
ST GEORGE      CLEAR     75  43  31 SE8       30.04R

$$

REGIONAL REPORTS     COLORADO/ARIZONA

CITY           SKY/WX    TMP DP  RH WIND       PRES   REMARKS
CRAIG, CO      CLEAR     47  36  65 CALM      30.27R
GRAND JUNCTION CLEAR     69  33  26 N10       30.15R
RIFLE          CLEAR     59  38  45 SE6       30.20R
MONTROSE       CLEAR     57  38  48 SE8       30.24R
CORTEZ         CLOUDY    54  37  52 NE9       30.23S
PAGE, AZ       CLEAR     70  36  28 SW5       30.10S
GRAND CANYON   MOCLDY    58  39  49 E8        30.27R
KINGMAN        CLEAR     66  51  58 S7        30.06R
FLAGSTAFF      MOCLDY    47  45  93 CALM      30.28R

$$

REGIONAL REPORTS    NEVADA/IDAHO/WYOMING

CITY           SKY/WX    TMP DP  RH WIND       PRES   REMARKS
LAS VEGAS, NV  CLOUDY    84  39  20 SW3       29.95R
ELY            CLEAR     55  30  38 SW5       30.22R
ELKO           CLEAR     61  40  45 NE3       30.12R
POCATELLO, ID  CLEAR     62  45  53 CALM      30.15R
BURLEY         CLEAR     55  49  80 S3        30.09R
EVANSTON, WY   CLEAR     61  39  44 N3        30.31R
ROCK SPRINGS   CLEAR     60  34  37 SE5       30.28S

$$




USA.gov is the U.S. government's official web portal to all federal, state and local government web resources and services.